Location: Newark
(51.5714°N, 0.6956°E)
Time: 17:21:51
(UTC+00:00)

N. Korean satellite - Visible Passes

Search period start: 15 October 2019 00:00
Search period end: 25 October 2019 00:00
Orbit: 455 x 508 km, 97.2° (Epoch: 14 October)

Date Brightness Start Highest point End Pass type
(mag) Time Alt. Az. Time Alt. Az. Time Alt. Az.
15 Oct 9.1 05:21:02 10° NE 05:24:07 27° E 05:27:14 10° SSE visible
15 Oct 8.9 17:35:04 10° SSW 17:38:07 29° W 17:41:11 10° NNW visible
16 Oct 10.0 04:56:26 10° NE 04:58:38 15° E 05:00:50 10° SE visible
17 Oct 10.5 18:20:32 10° W 18:21:17 11° W 18:22:02 10° WNW visible
18 Oct 8.1 05:38:16 10° NNE 05:41:43 42° E 05:45:11 10° S visible
18 Oct 9.7 17:53:11 10° SW 17:55:44 19° W 17:58:18 10° NW visible
19 Oct 9.4 05:13:21 10° NE 05:16:17 23° E 05:19:15 10° SSE visible
19 Oct 8.4 17:27:05 10° SSW 17:30:16 35° W 17:33:29 10° NNW visible
20 Oct 10.2 04:48:59 10° ENE 04:50:47 13° E 04:52:33 10° ESE visible
21 Oct 7.0 05:55:39 10° NNE 05:59:15 69° ESE 06:02:53 10° S visible
21 Oct 10.2 18:11:44 10° WSW 18:13:22 13° W 18:15:01 10° WNW visible
22 Oct 8.5 05:30:31 10° NNE 05:33:53 35° E 05:37:16 10° SSE visible
22 Oct 9.3 17:45:01 10° SSW 17:47:50 23° W 17:50:41 10° NW visible
23 Oct 9.7 05:05:40 10° NE 05:08:25 20° E 05:11:10 10° SE visible
23 Oct 7.9 17:19:04 10° S 17:22:22 44° W 17:25:44 10° NNW visible
24 Oct 10.4 04:41:43 10° ENE 04:42:51 11° E 04:43:59 10° ESE visible
